#Datum;Uhrzeit;WR;Pac;DaySum;Status;WR;Pac;DaySum;Status;Pdc1;Udc;Temp;WR;Pac;DaySum;Status;Pdc1;Udc;Temp;WR;Pac;DaySum;Status;Pdc1;Udc;Temp;WR;Pac;DaySum;Status;Pdc1;Pdc2;Udc1;Udc2;Temp;WR;Pac;DaySum;Status;Pdc1;Pdc2;Udc1;Udc2;Temp;WR;Pac;DaySum;Status;Pdc1;Udc;Temp;WR;Pac;DaySum;Status;Pdc1;Udc;Temp;WR;Pac;DaySum;Status;Pdc1;Udc;Temp
23.12.18;23:55:00;1;442;12942;0;2;0;1694;0;0;0;0;3;0;970;0;0;0;0;4;0;1369;0;0;0;0;5;0;3890;0;0;0;0;0;0;6;0;2805;0;0;0;0;0;0;7;0;1683;0;0;0;0;8;0;1702;0;0;0;0;9;0;848;0;0;0;0
23.12.18;23:50:00;1;394;12906;0;2;0;1694;0;0;0;0;3;0;970;0;0;0;0;4;0;1369;0;0;0;0;5;0;3890;0;0;0;0;0;0;6;0;2805;0;0;0;0;0;0;7;0;1683;0;0;0;0;8;0;1702;0;0;0;0;9;0;848;0;0;0;0
23.12.18;23:45:00;1;394;12872;0;2;0;1694;0;0;0;0;3;0;970;0;0;0;0;4;0;1369;0;0;0;0;5;0;3890;0;0;0;0;0;0;6;0;2805;0;0;0;0;0;0;7;0;1683;0;0;0;0;8;0;1702;0;0;0;0;9;0;848;0;0;0;0
23.12.18;23:40:00;1;408;12839;0;2;0;1694;0;0;0;0;3;0;970;0;0;0;0;4;0;1369;0;0;0;0;5;0;3890;0;0;0;0;0;0;6;0;2805;0;0;0;0;0;0;7;0;1683;0;0;0;0;8;0;1702;0;0;0;0;9;0;848;0;0;0;0
23.12.18;23:35:00;1;404;12805;0;2;0;1694;0;0;0;0;3;0;970;0;0;0;0;4;0;1369;0;0;0;0;5;0;3890;0;0;0;0;0;0;6;0;2805;0;0;0;0;0;0;7;0;1683;0;0;0;0;8;0;1702;0;0;0;0;9;0;848;0;0;0;0
23.12.18;23:30:00;1;511;12771;0;2;0;1694;0;0;0;0;3;0;970;0;0;0;0;4;0;1369;0;0;0;0;5;0;3890;0;0;0;0;0;0;6;0;2805;0;0;0;0;0;0;7;0;1683;0;0;0;0;8;0;1702;0;0;0;0;9;0;848;0;0;0;0
23.12.18;23:25:00;1;616;12728;0;2;0;1694;0;0;0;0;3;0;970;0;0;0;0;4;0;1369;0;0;0;0;5;0;3890;0;0;0;0;0;0;6;0;2805;0;0;0;0;0;0;7;0;1683;0;0;0;0;8;0;1702;0;0;0;0;9;0;848;0;0;0;0
23.12.18;23:20:00;1;712;12677;0;2;0;1694;0;0;0;0;3;0;970;0;0;0;0;4;0;1369;0;0;0;0;5;0;3890;0;0;0;0;0;0;6;0;2805;0;0;0;0;0;0;7;0;1683;0;0;0;0;8;0;1702;0;0;0;0;9;0;848;0;0;0;0
23.12.18;23:15:00;1;728;12617;0;2;0;1694;0;0;0;0;3;0;970;0;0;0;0;4;0;1369;0;0;0;0;5;0;3890;0;0;0;0;0;0;6;0;2805;0;0;0;0;0;0;7;0;1683;0;0;0;0;8;0;1702;0;0;0;0;9;0;848;0;0;0;0
23.12.18;23:10:00;1;690;12556;0;2;0;1694;0;0;0;0;3;0;970;0;0;0;0;4;0;1369;0;0;0;0;5;0;3890;0;0;0;0;0;0;6;0;2805;0;0;0;0;0;0;7;0;1683;0;0;0;0;8;0;1702;0;0;0;0;9;0;848;0;0;0;0
23.12.18;23:07:00;1;674;12533;0;2;0;1694;0;0;0;0;3;0;970;0;0;0;0;4;0;1369;0;0;0;0;5;0;3890;0;0;0;0;0;0;6;0;2805;0;0;0;0;0;0;7;0;1683;0;0;0;0;8;0;1702;0;0;0;0;9;0;848;0;0;0;0
23.12.18;23:00:00;1;689;12443;0;2;0;1694;0;0;0;0;3;0;970;0;0;0;0;4;0;1369;0;0;0;0;5;0;3890;0;0;0;0;0;0;6;0;2805;0;0;0;0;0;0;7;0;1683;0;0;0;0;8;0;1702;0;0;0;0;9;0;848;0;0;0;0
23.12.18;22:55:00;1;701;12385;0;2;0;1694;0;0;0;0;3;0;970;0;0;0;0;4;0;1369;0;0;0;0;5;0;3890;2;0;0;0;0;0;6;0;2805;2;0;0;0;0;0;7;0;1683;0;0;0;0;8;0;1702;0;0;0;0;9;0;848;0;0;0;0
23.12.18;22:50:00;1;671;12326;0;2;0;1694;0;0;0;0;3;0;970;0;0;0;0;4;0;1369;0;0;0;0;5;0;3890;2;0;0;0;0;0;6;0;2805;2;0;0;0;0;0;7;0;1683;0;0;0;0;8;0;1702;0;0;0;0;9;0;848;0;0;0;0
23.12.18;22:45:00;1;668;12270;0;2;0;1694;0;0;0;0;3;0;970;0;0;0;0;4;0;1369;0;0;0;0;5;0;3890;2;0;0;0;0;0;6;0;2805;2;0;0;0;0;0;7;0;1683;0;0;0;0;8;0;1702;0;0;0;0;9;0;848;0;0;0;0
23.12.18;22:40:00;1;659;12215;0;2;0;1694;0;0;0;0;3;0;970;0;0;0;0;4;0;1369;0;0;0;0;5;0;3890;2;0;0;0;0;0;6;0;2805;2;0;0;0;0;0;7;0;1683;0;0;0;0;8;0;1702;0;0;0;0;9;0;848;0;0;0;0
23.12.18;22:35:00;1;692;12160;0;2;0;1694;0;0;0;0;3;0;970;0;0;0;0;4;0;1369;0;0;0;0;5;0;3890;2;0;0;0;0;0;6;0;2805;2;0;0;0;0;0;7;0;1683;0;0;0;0;8;0;1702;0;0;0;0;9;0;848;0;0;0;0
23.12.18;22:30:00;1;717;12102;0;2;0;1694;0;0;0;0;3;0;970;0;0;0;0;4;0;1369;0;0;0;0;5;0;3890;2;0;0;0;0;0;6;0;2805;2;0;0;0;0;0;7;0;1683;0;0;0;0;8;0;1702;0;0;0;0;9;0;848;0;0;0;0
23.12.18;22:25:00;1;732;12042;0;2;0;1694;0;0;0;0;3;0;970;0;0;0;0;4;0;1369;0;0;0;0;5;0;3890;2;0;0;0;0;0;6;0;2805;2;0;0;0;0;0;7;0;1683;0;0;0;0;8;0;1702;0;0;0;0;9;0;848;0;0;0;0
23.12.18;22:20:00;1;738;11981;0;2;0;1694;0;0;0;0;3;0;970;0;0;0;0;4;0;1369;0;0;0;0;5;0;3890;2;0;0;0;0;0;6;0;2805;2;0;0;0;0;0;7;0;1683;0;0;0;0;8;0;1702;0;0;0;0;9;0;848;0;0;0;0
23.12.18;22:15:00;1;693;11920;0;2;0;1694;0;0;0;0;3;0;970;0;0;0;0;4;0;1369;0;0;0;0;5;0;3890;2;0;0;0;0;0;6;0;2805;2;0;0;0;0;0;7;0;1683;0;0;0;0;8;0;1702;0;0;0;0;9;0;848;0;0;0;0
23.12.18;22:10:00;1;703;11862;0;2;0;1694;0;0;0;0;3;0;970;0;0;0;0;4;0;1369;0;0;0;0;5;0;3890;2;0;0;0;0;0;6;0;2805;2;0;0;0;0;0;7;0;1683;0;0;0;0;8;0;1702;0;0;0;0;9;0;848;0;0;0;0
23.12.18;22:05:00;1;700;11804;0;2;0;1694;0;0;0;0;3;0;970;0;0;0;0;4;0;1369;0;0;0;0;5;0;3890;2;0;0;0;0;0;6;0;2805;2;0;0;0;0;0;7;0;1683;0;0;0;0;8;0;1702;0;0;0;0;9;0;848;0;0;0;0
23.12.18;22:00:00;1;717;11746;0;2;0;1694;0;0;0;0;3;0;970;0;0;0;0;4;0;1369;0;0;0;0;5;0;3890;2;0;0;0;0;0;6;0;2805;2;0;0;0;0;0;7;0;1683;0;0;0;0;8;0;1702;0;0;0;0;9;0;848;0;0;0;0
23.12.18;21:55:00;1;694;11686;0;2;0;1694;0;0;0;0;3;0;970;0;0;0;0;4;0;1369;0;0;0;0;5;0;3890;2;0;0;0;0;0;6;0;2805;2;0;0;0;0;0;7;0;1683;0;0;0;0;8;0;1702;0;0;0;0;9;0;848;0;0;0;0
23.12.18;21:50:00;1;702;11627;0;2;0;1694;0;0;0;0;3;0;970;0;0;0;0;4;0;1369;0;0;0;0;5;0;3890;2;0;0;0;0;0;6;0;2805;2;0;0;0;0;0;7;0;1683;0;0;0;0;8;0;1702;0;0;0;0;9;0;848;0;0;0;0
23.12.18;21:45:00;1;703;11569;0;2;0;1694;0;0;0;0;3;0;970;0;0;0;0;4;0;1369;0;0;0;0;5;0;3890;2;0;0;0;0;0;6;0;2805;2;0;0;0;0;0;7;0;1683;0;0;0;0;8;0;1702;0;0;0;0;9;0;848;0;0;0;0
23.12.18;21:40:00;1;714;11510;0;2;0;1694;0;0;0;0;3;0;970;0;0;0;0;4;0;1369;0;0;0;0;5;0;3890;2;0;0;0;0;0;6;0;2805;2;0;0;0;0;0;7;0;1683;0;0;0;0;8;0;1702;0;0;0;0;9;0;848;0;0;0;0
23.12.18;21:35:00;1;753;11450;0;2;0;1694;0;0;0;0;3;0;970;0;0;0;0;4;0;1369;0;0;0;0;5;0;3890;2;0;0;0;0;0;6;0;2805;2;0;0;0;0;0;7;0;1683;0;0;0;0;8;0;1702;0;0;0;0;9;0;848;0;0;0;0
23.12.18;21:30:00;1;771;11387;0;2;0;1694;0;0;0;0;3;0;970;0;0;0;0;4;0;1369;0;0;0;0;5;0;3890;2;0;0;0;0;0;6;0;2805;2;0;0;0;0;0;7;0;1683;0;0;0;0;8;0;1702;0;0;0;0;9;0;848;0;0;0;0
23.12.18;21:25:00;1;834;11323;0;2;0;1694;0;0;0;0;3;0;970;0;0;0;0;4;0;1369;0;0;0;0;5;0;3890;2;0;0;0;0;0;6;0;2805;2;0;0;0;0;0;7;0;1683;0;0;0;0;8;0;1702;0;0;0;0;9;0;848;0;0;0;0
23.12.18;21:20:00;1;786;11254;0;2;0;1694;0;0;0;0;3;0;970;0;0;0;0;4;0;1369;0;0;0;0;5;0;3890;2;0;0;0;0;0;6;0;2805;2;0;0;0;0;0;7;0;1683;0;0;0;0;8;0;1702;0;0;0;0;9;0;848;0;0;0;0
23.12.18;21:15:00;1;804;11188;0;2;0;1694;0;0;0;0;3;0;970;0;0;0;0;4;0;1369;0;0;0;0;5;0;3890;2;0;0;0;0;0;6;0;2805;2;0;0;0;0;0;7;0;1683;0;0;0;0;8;0;1702;0;0;0;0;9;0;848;0;0;0;0
23.12.18;21:10:00;1;795;11122;0;2;0;1694;0;0;0;0;3;0;970;0;0;0;0;4;0;1369;0;0;0;0;5;0;3890;2;0;0;0;0;0;6;0;2805;2;0;0;0;0;0;7;0;1683;0;0;0;0;8;0;1702;0;0;0;0;9;0;848;0;0;0;0
23.12.18;21:05:00;1;801;11056;0;2;0;1694;0;0;0;0;3;0;970;0;0;0;0;4;0;1369;0;0;0;0;5;0;3890;2;0;0;0;0;0;6;0;2805;2;0;0;0;0;0;7;0;1683;0;0;0;0;8;0;1702;0;0;0;0;9;0;848;0;0;0;0
23.12.18;21:00:00;1;784;10990;0;2;0;1694;0;0;0;0;3;0;970;0;0;0;0;4;0;1369;0;0;0;0;5;0;3890;2;0;0;0;0;0;6;0;2805;2;0;0;0;0;0;7;0;1683;0;0;0;0;8;0;1702;0;0;0;0;9;0;848;0;0;0;0
23.12.18;20:55:00;1;1512;10924;0;2;0;1694;0;0;0;0;3;0;970;0;0;0;0;4;0;1369;0;0;0;0;5;0;3890;2;0;0;0;0;0;6;0;2805;2;0;0;0;0;0;7;0;1683;0;0;0;0;8;0;1702;0;0;0;0;9;0;848;0;0;0;0
23.12.18;20:50:00;1;1802;10795;0;2;0;1694;0;0;0;0;3;0;970;0;0;0;0;4;0;1369;0;0;0;0;5;0;3890;2;0;0;0;0;0;6;0;2805;2;0;0;0;0;0;7;0;1683;0;0;0;0;8;0;1702;0;0;0;0;9;0;848;0;0;0;0
23.12.18;20:45:00;1;1427;10644;0;2;0;1694;0;0;0;0;3;0;970;0;0;0;0;4;0;1369;0;0;0;0;5;0;3890;2;0;0;0;0;0;6;0;2805;2;0;0;0;0;0;7;0;1683;0;0;0;0;8;0;1702;0;0;0;0;9;0;848;0;0;0;0
23.12.18;20:40:00;1;831;10528;0;2;0;1694;0;0;0;0;3;0;970;0;0;0;0;4;0;1369;0;0;0;0;5;0;3890;2;0;0;0;0;0;6;0;2805;2;0;0;0;0;0;7;0;1683;0;0;0;0;8;0;1702;0;0;0;0;9;0;848;0;0;0;0
23.12.18;20:35:00;1;752;10459;0;2;0;1694;0;0;0;0;3;0;970;0;0;0;0;4;0;1369;0;0;0;0;5;0;3890;2;0;0;0;0;0;6;0;2805;2;0;0;0;0;0;7;0;1683;0;0;0;0;8;0;1702;0;0;0;0;9;0;848;0;0;0;0
23.12.18;20:30:00;1;738;10396;0;2;0;1694;0;0;0;0;3;0;970;0;0;0;0;4;0;1369;0;0;0;0;5;0;3890;2;0;0;0;0;0;6;0;2805;2;0;0;0;0;0;7;0;1683;0;0;0;0;8;0;1702;0;0;0;0;9;0;848;0;0;0;0
23.12.18;20:25:00;1;688;10335;0;2;0;1694;0;0;0;0;3;0;970;0;0;0;0;4;0;1369;0;0;0;0;5;0;3890;2;0;0;0;0;0;6;0;2805;2;0;0;0;0;0;7;0;1683;0;0;0;0;8;0;1702;0;0;0;0;9;0;848;0;0;0;0
23.12.18;20:20:00;1;709;10277;0;2;0;1694;0;0;0;0;3;0;970;0;0;0;0;4;0;1369;0;0;0;0;5;0;3890;2;0;0;0;0;0;6;0;2805;2;0;0;0;0;0;7;0;1683;0;0;0;0;8;0;1702;0;0;0;0;9;0;848;0;0;0;0
23.12.18;20:15:00;1;739;10217;0;2;0;1694;0;0;0;0;3;0;970;0;0;0;0;4;0;1369;0;0;0;0;5;0;3890;2;0;0;0;0;0;6;0;2805;2;0;0;0;0;0;7;0;1683;0;0;0;0;8;0;1702;0;0;0;0;9;0;848;0;0;0;0
23.12.18;20:10:00;1;743;10155;0;2;0;1694;0;0;0;0;3;0;970;0;0;0;0;4;0;1369;0;0;0;0;5;0;3890;2;0;0;0;0;0;6;0;2805;2;0;0;0;0;0;7;0;1683;0;0;0;0;8;0;1702;0;0;0;0;9;0;848;0;0;0;0
23.12.18;20:05:00;1;748;10093;0;2;0;1694;0;0;0;0;3;0;970;0;0;0;0;4;0;1369;0;0;0;0;5;0;3890;2;0;0;0;0;0;6;0;2805;2;0;0;0;0;0;7;0;1683;0;0;0;0;8;0;1702;0;0;0;0;9;0;848;0;0;0;0
23.12.18;20:00:00;1;759;10031;0;2;0;1694;0;0;0;0;3;0;970;0;0;0;0;4;0;1369;0;0;0;0;5;0;3890;2;0;0;0;0;0;6;0;2805;2;0;0;0;0;0;7;0;1683;0;0;0;0;8;0;1702;0;0;0;0;9;0;848;0;0;0;0
23.12.18;19:55:00;1;753;9967;0;2;0;1694;0;0;0;0;3;0;970;0;0;0;0;4;0;1369;0;0;0;0;5;0;3890;2;0;0;0;0;0;6;0;2805;2;0;0;0;0;0;7;0;1683;0;0;0;0;8;0;1702;0;0;0;0;9;0;848;0;0;0;0
23.12.18;19:50:00;1;751;9905;0;2;0;1694;0;0;0;0;3;0;970;0;0;0;0;4;0;1369;0;0;0;0;5;0;3890;2;0;0;0;0;0;6;0;2805;2;0;0;0;0;0;7;0;1683;0;0;0;0;8;0;1702;0;0;0;0;9;0;848;0;0;0;0
23.12.18;19:45:00;1;763;9843;0;2;0;1694;0;0;0;0;3;0;970;0;0;0;0;4;0;1369;0;0;0;0;5;0;3890;2;0;0;0;0;0;6;0;2805;2;0;0;0;0;0;7;0;1683;0;0;0;0;8;0;1702;0;0;0;0;9;0;848;0;0;0;0
23.12.18;19:40:00;1;672;9779;0;2;0;1694;0;0;0;0;3;0;970;0;0;0;0;4;0;1369;0;0;0;0;5;0;3890;2;0;0;0;0;0;6;0;2805;2;0;0;0;0;0;7;0;1683;0;0;0;0;8;0;1702;0;0;0;0;9;0;848;0;0;0;0
23.12.18;19:35:00;1;776;9719;0;2;0;1694;0;0;0;0;3;0;970;0;0;0;0;4;0;1369;0;0;0;0;5;0;3890;2;0;0;0;0;0;6;0;2805;2;0;0;0;0;0;7;0;1683;0;0;0;0;8;0;1702;0;0;0;0;9;0;848;0;0;0;0
23.12.18;19:30:00;1;553;9653;0;2;0;1694;0;0;0;0;3;0;970;0;0;0;0;4;0;1369;0;0;0;0;5;0;3890;2;0;0;0;0;0;6;0;2805;2;0;0;0;0;0;7;0;1683;0;0;0;0;8;0;1702;0;0;0;0;9;0;848;0;0;0;0
23.12.18;19:25:00;1;524;9604;0;2;0;1694;0;0;0;0;3;0;970;0;0;0;0;4;0;1369;0;0;0;0;5;0;3890;2;0;0;0;0;0;6;0;2805;2;0;0;0;0;0;7;0;1683;0;0;0;0;8;0;1702;0;0;0;0;9;0;848;0;0;0;0
23.12.18;19:20:00;1;510;9561;0;2;0;1694;0;0;0;0;3;0;970;0;0;0;0;4;0;1369;0;0;0;0;5;0;3890;2;0;0;0;0;0;6;0;2805;2;0;0;0;0;0;7;0;1683;0;0;0;0;8;0;1702;0;0;0;0;9;0;848;0;0;0;0
23.12.18;19:15:00;1;518;9519;0;2;0;1694;0;0;0;0;3;0;970;0;0;0;0;4;0;1369;0;0;0;0;5;0;3890;2;0;0;0;0;0;6;0;2805;2;0;0;0;0;0;7;0;1683;0;0;0;0;8;0;1702;0;0;0;0;9;0;848;0;0;0;0
23.12.18;19:10:00;1;569;9475;0;2;0;1694;0;0;0;0;3;0;970;0;0;0;0;4;0;1369;0;0;0;0;5;0;3890;2;0;0;0;0;0;6;0;2805;2;0;0;0;0;0;7;0;1683;0;0;0;0;8;0;1702;0;0;0;0;9;0;848;0;0;0;0
23.12.18;19:05:00;1;575;9427;0;2;0;1694;0;0;0;0;3;0;970;0;0;0;0;4;0;1369;0;0;0;0;5;0;3890;2;0;0;0;0;0;6;0;2805;2;0;0;0;0;0;7;0;1683;0;0;0;0;8;0;1702;0;0;0;0;9;0;848;0;0;0;0
23.12.18;19:00:00;1;561;9380;0;2;0;1694;0;0;0;0;3;0;970;0;0;0;0;4;0;1369;0;0;0;0;5;0;3890;2;0;0;0;0;0;6;0;2805;2;0;0;0;0;0;7;0;1683;0;0;0;0;8;0;1702;0;0;0;0;9;0;848;0;0;0;0
23.12.18;18:55:00;1;567;9334;0;2;0;1694;0;0;0;0;3;0;970;0;0;0;0;4;0;1369;0;0;0;0;5;0;3890;2;0;0;0;0;0;6;0;2805;2;0;0;0;0;0;7;0;1683;0;0;0;0;8;0;1702;0;0;0;0;9;0;848;0;0;0;0
23.12.18;18:50:00;1;606;9286;0;2;0;1694;0;0;0;0;3;0;970;0;0;0;0;4;0;1369;0;0;0;0;5;0;3890;2;0;0;0;0;0;6;0;2805;2;0;0;0;0;0;7;0;1683;0;0;0;0;8;0;1702;0;0;0;0;9;0;848;0;0;0;0
23.12.18;18:45:00;1;574;9236;0;2;0;1694;0;0;0;0;3;0;970;0;0;0;0;4;0;1369;0;0;0;0;5;0;3890;2;0;0;0;0;0;6;0;2805;2;0;0;0;0;0;7;0;1683;0;0;0;0;8;0;1702;0;0;0;0;9;0;848;0;0;0;0
23.12.18;18:40:00;1;573;9188;0;2;0;1694;0;0;0;0;3;0;970;0;0;0;0;4;0;1369;0;0;0;0;5;0;3890;2;0;0;0;0;0;6;0;2805;2;0;0;0;0;0;7;0;1683;0;0;0;0;8;0;1702;0;0;0;0;9;0;848;0;0;0;0
23.12.18;18:35:00;1;570;9140;0;2;0;1694;0;0;0;0;3;0;970;0;0;0;0;4;0;1369;0;0;0;0;5;0;3890;2;0;0;0;0;0;6;0;2805;2;0;0;0;0;0;7;0;1683;0;0;0;0;8;0;1702;0;0;0;0;9;0;848;0;0;0;0
23.12.18;18:30:00;1;509;9091;0;2;0;1694;0;0;0;0;3;0;970;0;0;0;0;4;0;1369;0;0;0;0;5;0;3890;2;0;0;0;0;0;6;0;2805;2;0;0;0;0;0;7;0;1683;0;0;0;0;8;0;1702;0;0;0;0;9;0;848;0;0;0;0
23.12.18;18:25:00;1;601;9048;0;2;0;1694;0;0;0;0;3;0;970;0;0;0;0;4;0;1369;0;0;0;0;5;0;3890;2;0;0;0;0;0;6;0;2805;2;0;0;0;0;0;7;0;1683;0;0;0;0;8;0;1702;0;0;0;0;9;0;848;0;0;0;0
23.12.18;18:20:00;1;735;8994;0;2;0;1694;0;0;0;0;3;0;970;0;0;0;0;4;0;1369;0;0;0;0;5;0;3890;2;0;0;0;0;0;6;0;2805;2;0;0;0;0;0;7;0;1683;0;0;0;0;8;0;1702;0;0;0;0;9;0;848;0;0;0;0
23.12.18;18:15:00;1;724;8933;0;2;0;1694;0;0;0;0;3;0;970;0;0;0;0;4;0;1369;0;0;0;0;5;0;3890;2;0;0;0;0;0;6;0;2805;2;0;0;0;0;0;7;0;1683;0;0;0;0;8;0;1702;0;0;0;0;9;0;848;0;0;0;0
23.12.18;18:10:00;1;723;8872;0;2;0;1694;0;0;0;0;3;0;970;0;0;0;0;4;0;1369;0;0;0;0;5;0;3890;2;0;0;0;0;0;6;0;2805;2;0;0;0;0;0;7;0;1683;0;0;0;0;8;0;1702;0;0;0;0;9;0;848;0;0;0;0
23.12.18;18:05:00;1;727;8811;0;2;0;1694;0;0;0;0;3;0;970;0;0;0;0;4;0;1369;0;0;0;0;5;0;3890;2;0;0;0;0;0;6;0;2805;2;0;0;0;0;0;7;0;1683;0;0;0;0;8;0;1702;0;0;0;0;9;0;848;0;0;0;0
23.12.18;18:00:00;1;504;8755;0;2;0;1694;0;0;0;0;3;0;970;0;0;0;0;4;0;1369;0;0;0;0;5;0;3890;2;0;0;0;0;0;6;0;2805;2;0;0;0;0;0;7;0;1683;0;0;0;0;8;0;1702;0;0;0;0;9;0;848;0;0;0;0
23.12.18;17:55:00;1;735;8713;0;2;0;1694;0;0;0;0;3;0;970;0;0;0;0;4;0;1369;0;0;0;0;5;0;3890;2;0;0;0;0;0;6;0;2805;2;0;0;0;0;0;7;0;1683;0;0;0;0;8;0;1702;0;0;0;0;9;0;848;0;0;0;0
23.12.18;17:50:00;1;783;8647;0;2;0;1694;0;0;0;0;3;0;970;0;0;0;0;4;0;1369;0;0;0;0;5;0;3890;2;0;0;0;0;0;6;0;2805;2;0;0;0;0;0;7;0;1683;0;0;0;0;8;0;1702;0;0;0;0;9;0;848;0;0;0;0
23.12.18;17:45:00;1;591;8584;0;2;0;1694;0;0;0;0;3;0;970;0;0;0;0;4;0;1369;0;0;0;0;5;0;3890;2;0;0;0;0;0;6;0;2805;2;0;0;0;0;0;7;0;1683;0;0;0;0;8;0;1702;0;0;0;0;9;0;848;0;0;0;0
23.12.18;17:40:00;1;571;8535;0;2;0;1694;0;0;0;0;3;0;970;0;0;0;0;4;0;1369;0;0;0;0;5;0;3890;2;0;0;0;0;0;6;0;2805;2;0;0;0;0;0;7;0;1683;0;0;0;0;8;0;1702;0;0;0;0;9;0;848;0;0;0;0
23.12.18;17:35:00;1;861;8488;0;2;0;1694;0;0;0;0;3;0;970;0;0;0;0;4;0;1369;0;0;0;0;5;0;3890;2;0;0;0;0;0;6;0;2805;2;0;0;0;0;0;7;0;1683;0;0;0;0;8;0;1702;0;0;0;0;9;0;848;0;0;0;0
23.12.18;17:30:00;1;1006;8429;0;2;0;1694;0;0;0;0;3;0;970;0;0;0;0;4;0;1369;0;0;0;0;5;0;3890;2;0;0;0;0;0;6;0;2805;2;0;0;0;0;0;7;0;1683;0;0;0;0;8;0;1702;0;0;0;0;9;0;848;0;0;0;0
23.12.18;17:25:00;1;1010;8345;0;2;0;1694;0;0;0;0;3;0;970;0;0;0;0;4;0;1369;0;0;0;0;5;0;3890;2;0;0;0;0;0;6;0;2805;2;0;0;0;0;0;7;0;1683;0;0;0;0;8;0;1702;0;0;0;0;9;0;848;0;0;0;0
23.12.18;17:20:00;1;465;8267;0;2;0;1694;0;0;0;0;3;0;970;0;0;0;0;4;0;1369;0;0;0;0;5;0;3890;2;0;0;0;0;0;6;0;2805;2;0;0;0;0;0;7;0;1683;0;0;0;0;8;0;1702;0;0;0;0;9;0;848;0;0;0;0
23.12.18;17:15:00;1;455;8229;0;2;0;1694;0;0;0;0;3;0;970;0;0;0;0;4;0;1369;0;0;0;0;5;0;3890;2;0;0;0;0;0;6;0;2805;2;0;0;0;0;0;7;0;1683;0;0;0;0;8;0;1702;0;0;0;0;9;0;848;0;0;0;0
23.12.18;17:10:00;1;505;8190;0;2;0;1694;0;0;0;0;3;0;970;0;0;0;0;4;0;1369;0;0;0;0;5;0;3890;2;0;0;0;0;0;6;0;2805;2;0;0;0;0;0;7;0;1683;0;0;0;0;8;0;1702;0;0;0;0;9;0;848;0;0;0;0
23.12.18;17:05:00;1;511;8148;0;2;0;1694;0;0;0;0;3;0;970;0;0;0;0;4;0;1369;0;0;0;0;5;0;3890;2;0;0;0;0;0;6;0;2805;2;0;0;0;0;0;7;0;1683;0;0;0;0;8;0;1702;0;0;0;0;9;0;848;0;0;0;0
23.12.18;17:00:00;1;538;8106;0;2;0;1694;0;0;0;0;3;0;970;0;0;0;0;4;0;1369;0;0;0;0;5;0;3890;2;0;0;0;0;0;6;0;2805;2;0;0;0;0;0;7;0;1683;0;0;0;0;8;0;1702;0;0;0;0;9;0;848;0;0;0;0
23.12.18;16:55:00;1;579;8060;0;2;0;1694;0;0;0;0;3;0;970;0;0;0;0;4;0;1369;0;0;0;0;5;0;3890;2;0;0;0;0;0;6;0;2805;2;0;0;0;0;0;7;0;1683;0;0;0;0;8;0;1702;0;0;0;0;9;0;848;0;0;0;0
23.12.18;16:50:00;1;635;8011;0;2;0;1694;0;0;0;0;3;0;970;0;0;0;0;4;0;1369;0;0;0;0;5;0;3890;2;0;0;0;0;0;6;0;2805;2;0;0;0;0;0;7;0;1683;0;0;0;0;8;0;1702;0;0;0;0;9;0;848;0;0;0;0
23.12.18;16:45:00;1;615;7959;0;2;0;1694;0;0;0;0;3;0;970;0;0;0;0;4;0;1369;0;0;0;0;5;0;3890;2;0;0;0;0;0;6;0;2805;2;0;0;0;0;0;7;0;1683;0;0;0;0;8;0;1702;0;0;0;0;9;0;848;0;0;0;0
23.12.18;16:40:00;1;696;7908;0;2;0;1694;0;0;0;0;3;0;970;0;0;0;0;4;0;1369;0;0;0;0;5;0;3890;2;0;0;0;0;0;6;0;2805;2;0;0;0;0;0;7;0;1683;0;0;0;0;8;0;1702;0;0;0;0;9;0;848;0;0;0;0
23.12.18;16:35:00;1;639;7854;0;2;0;1694;0;0;0;0;3;0;970;0;0;0;0;4;0;1369;0;0;0;0;5;0;3890;2;0;0;0;0;0;6;0;2805;2;0;0;0;0;0;7;0;1683;0;0;0;0;8;0;1702;0;0;0;0;9;0;848;0;0;0;0
23.12.18;16:30:00;1;654;7801;0;2;0;1694;0;0;0;0;3;0;970;0;0;0;0;4;0;1369;0;0;0;0;5;0;3890;2;0;0;0;0;0;6;0;2805;2;0;0;0;0;0;7;0;1683;0;0;0;0;8;0;1702;0;0;0;0;9;0;848;0;0;0;0
23.12.18;16:25:00;1;627;7750;0;2;0;1694;0;0;172;6;3;0;970;6;0;285;14;4;0;1369;0;0;22;4;5;0;3890;2;0;0;0;0;0;6;0;2805;2;0;0;0;0;0;7;0;1683;0;0;0;0;8;0;1702;0;0;0;0;9;0;848;0;0;0;0
23.12.18;16:20:00;1;608;7699;0;2;0;1694;6;0;285;10;3;0;970;6;0;317;14;4;0;1369;2;0;80;12;5;0;3890;2;0;0;0;0;0;6;0;2805;2;0;0;0;0;0;7;0;1683;0;0;0;0;8;0;1702;0;0;0;0;9;0;848;0;0;0;0
23.12.18;16:15:00;1;604;7650;0;2;0;1694;6;0;307;10;3;0;970;6;0;367;14;4;0;1369;1;0;103;13;5;0;3890;2;0;0;92;91;7;6;0;2805;2;0;0;0;0;1;7;0;1683;0;0;0;0;8;0;1702;0;0;0;0;9;0;848;0;0;41;1
23.12.18;16:10:00;1;535;7603;0;2;0;1694;6;0;326;11;3;0;970;6;0;400;14;4;0;1369;1;0;124;13;5;0;3890;2;0;0;312;335;23;6;0;2805;2;5;3;144;322;17;7;0;1683;0;0;106;6;8;0;1702;0;0;107;6;9;0;848;6;0;269;11
23.12.18;16:05:00;1;612;7558;0;2;0;1694;6;0;357;11;3;0;970;6;1;434;14;4;0;1369;1;0;166;13;5;0;3890;23;0;0;395;512;23;6;0;2805;23;5;5;307;400;22;7;0;1683;6;0;322;16;8;0;1702;6;0;327;15;9;0;848;6;0;344;12
23.12.18;16:00:00;1;626;7509;0;2;0;1694;6;0;379;11;3;0;970;6;2;455;14;4;0;1369;1;0;202;13;5;3;3890;1;0;0;411;642;23;6;0;2805;23;3;7;499;265;23;7;0;1683;6;0;392;16;8;0;1702;6;0;398;16;9;0;848;6;0;413;12
23.12.18;15:55:00;1;609;7458;0;2;0;1694;6;0;394;11;3;1;970;6;3;481;14;4;0;1369;3;0;202;14;5;9;3889;1;1;1;414;660;24;6;0;2805;23;5;5;319;572;23;7;0;1683;6;0;418;16;8;0;1702;6;1;423;16;9;0;848;6;0;457;12
23.12.18;15:50:00;1;646;7408;0;2;0;1694;6;0;401;11;3;1;970;3;3;485;14;4;0;1369;3;0;217;14;5;62;3888;1;11;17;382;608;25;6;39;2805;1;14;23;498;477;24;7;0;1683;6;2;428;16;8;0;1702;6;2;433;16;9;0;848;6;0;470;12
23.12.18;15:45:00;1;581;7357;0;2;0;1694;6;0;409;11;3;0;969;6;5;499;14;4;0;1369;3;0;226;14;5;92;3882;4;23;27;371;590;25;6;62;2802;4;23;31;474;452;25;7;0;1683;6;1;450;17;8;2;1702;6;1;443;16;9;2;848;6;4;464;12
23.12.18;15:40:00;1;572;7311;0;2;0;1694;6;0;414;12;3;0;969;6;6;501;14;4;0;1369;3;0;199;14;5;104;3874;4;33;31;371;590;25;6;71;2797;4;32;41;475;452;25;7;3;1683;6;4;454;17;8;0;1702;6;0;480;16;9;4;848;3;6;368;9
23.12.18;15:35:00;1;566;7265;0;2;4;1694;6;8;409;12;3;3;969;6;11;485;15;4;1;1369;3;1;199;14;5;122;3865;4;46;42;371;590;25;6;81;2791;4;42;52;475;452;25;7;2;1682;3;10;446;17;8;3;1702;4;10;446;17;9;0;847;6;3;515;12
23.12.18;15:30:00;1;564;7219;0;2;15;1693;3;25;398;12;3;3;969;6;8;514;15;4;8;1369;3;8;199;14;5;148;3855;4;54;57;371;590;25;6;96;2784;4;46;56;475;453;25;7;5;1682;6;8;468;17;8;5;1701;6;9;472;17;9;1;847;6;5;515;12
23.12.18;15:25:00;1;1313;7172;0;2;58;1692;4;83;359;13;3;0;969;6;0;552;15;4;12;1368;3;12;198;14;5;181;3843;4;75;72;371;590;25;6;123;2775;4;52;65;474;452;25;7;29;1682;6;37;411;17;8;16;1701;6;28;446;17;9;3;847;6;6;529;12
23.12.18;15:20:00;1;2400;7054;0;2;76;1687;4;101;356;13;3;6;969;4;13;529;15;4;32;1367;3;33;198;14;5;213;3827;4;100;88;371;590;25;6;143;2765;4;75;83;475;452;25;7;50;1680;4;81;409;17;8;59;1700;4;77;364;17;9;5;847;6;10;538;12
23.12.18;15:15:00;1;3232;6853;0;2;90;1681;4;115;359;13;3;15;968;3;23;496;15;4;44;1364;3;46;198;14;5;239;3809;4;108;102;371;590;25;6;160;2753;4;49;53;475;452;25;7;64;1675;4;93;404;18;8;69;1695;4;100;402;17;9;0;847;6;0;572;13
23.12.18;15:10:00;1;4142;6562;0;2;113;1673;4;140;361;13;3;63;967;4;96;445;16;4;74;1361;3;77;198;15;5;286;3789;4;130;123;371;590;25;6;195;2739;4;89;93;474;452;25;7;94;1670;4;118;392;18;8;92;1689;4;128;424;17;9;19;847;3;27;518;13
23.12.18;15:05:00;1;3440;6187;0;2;136;1664;4;165;369;13;3;79;962;4;113;462;16;4;96;1355;3;100;211;15;5;331;3765;4;159;137;371;590;25;6;228;2723;4;129;140;474;452;25;7;116;1662;4;151;435;18;8;124;1682;4;149;418;17;9;23;844;6;30;548;13
23.12.18;15:00:00;1;2554;5906;0;2;166;1652;4;195;376;13;3;96;955;4;132;490;16;4;125;1347;5;130;227;15;5;384;3737;4;189;168;371;590;25;6;262;2704;4;146;157;474;452;25;7;152;1653;4;186;435;18;8;156;1671;4;185;422;17;9;67;843;4;84;383;10
23.12.18;14:55:00;1;1915;5691;0;2;192;1639;4;220;373;13;3;108;947;4;147;506;16;4;147;1336;5;153;225;15;5;423;3705;4;203;190;371;590;25;6;291;2681;4;146;150;475;453;25;7;192;1640;4;217;462;18;8;185;1658;4;217;469;17;9;99;835;4;126;493;13
23.12.18;14:50:00;1;499;5561;0;2;176;1623;4;207;379;13;3;102;938;4;139;490;16;4;137;1324;5;143;222;15;5;399;3670;4;195;172;380;590;25;6;271;2657;4;129;137;474;452;25;7;175;1624;4;212;457;18;8;184;1643;4;213;453;17;9;98;827;4;121;489;13
23.12.18;14:45:00;1;505;5518;0;2;183;1608;4;213;378;13;3;102;929;4;142;509;16;4;141;1312;5;146;223;15;5;411;3637;4;205;181;379;590;25;6;281;2634;4;148;151;474;452;25;7;191;1610;4;215;413;17;8;187;1628;4;223;456;17;9;100;819;4;125;495;13
23.12.18;14:40:00;1;674;5476;0;2;188;1593;4;215;371;13;3;107;921;4;142;504;16;4;144;1301;5;150;225;15;5;427;3602;4;212;188;382;587;25;6;287;2611;4;176;184;474;452;25;7;207;1594;4;234;423;18;8;200;1612;4;237;463;17;9;105;811;4;133;500;13
23.12.18;14:35:00;1;584;5422;0;2;226;1577;4;258;370;13;3;130;912;4;166;518;16;4;184;1289;5;191;227;15;5;524;3565;4;257;225;403;637;25;6;337;2587;4;158;166;475;452;25;7;223;1577;4;259;441;18;8;225;1596;4;259;464;17;9;119;802;4;147;516;13
23.12.18;14:30:00;1;695;5372;0;2;219;1558;4;250;384;13;3;129;901;4;165;504;16;4;170;1273;5;178;228;15;5;499;3522;4;244;216;403;635;25;6;326;2558;4;153;155;474;452;25;7;228;1558;4;253;460;17;8;227;1577;4;258;437;17;9;121;792;4;146;503;13
23.12.18;14:25:00;1;690;5311;0;2;215;1540;4;244;376;13;3;128;890;4;164;499;16;4;172;1259;5;179;226;14;5;500;3481;4;245;213;396;630;25;6;327;2531;4;179;179;474;452;24;7;212;1539;4;259;464;17;8;227;1558;4;266;438;17;9;120;782;4;145;515;13
23.12.18;14:20:00;1;587;5256;0;2;248;1522;4;281;378;13;3;151;880;4;188;490;16;4;202;1245;5;211;229;14;5;554;3439;4;276;240;407;601;24;6;367;2504;4;201;203;474;452;24;7;243;1522;4;277;463;17;8;244;1539;4;274;460;17;9;126;772;4;154;513;13
23.12.18;14:15:00;1;498;5198;0;2;269;1501;4;299;380;13;3;162;867;4;203;501;16;4;218;1228;5;227;233;15;5;588;3392;4;296;256;402;626;24;6;382;2473;4;195;202;474;452;24;7;275;1502;4;305;470;17;8;281;1519;4;308;460;17;9;147;761;4;172;509;13
23.12.18;14:10:00;1;539;5156;0;2;222;1479;4;251;374;13;3;131;854;4;169;495;16;4;177;1209;5;184;227;15;5;485;3344;4;237;208;396;599;24;6;326;2441;4;167;169;475;453;24;7;213;1479;4;249;467;17;8;214;1495;4;259;461;17;9;119;749;4;145;510;13
23.12.18;14:05:00;1;545;5110;0;2;199;1460;4;229;373;13;3;118;843;4;154;493;16;4;152;1194;5;158;226;14;5;445;3303;4;217;189;389;590;24;6;300;2414;4;128;133;474;452;24;7;192;1461;4;233;459;17;8;196;1477;4;235;449;17;9;105;739;4;134;511;13
23.12.18;14:00:00;1;583;5062;0;2;185;1443;4;215;365;13;3;109;833;4;148;498;16;4;144;1182;5;149;228;14;5;427;3267;4;211;186;386;590;24;6;295;2390;4;165;172;475;452;24;7;182;1445;4;216;459;17;8;179;1460;4;218;443;17;9;97;730;4;122;503;13
23.12.18;13:55:00;1;585;5014;0;2;172;1428;4;200;371;13;3;96;824;4;134;503;16;4;134;1170;5;139;225;14;5;408;3231;4;200;177;384;603;24;6;283;2365;4;154;172;474;492;24;7;181;1430;4;208;451;17;8;176;1446;4;211;456;17;9;95;722;4;120;499;13
23.12.18;13:50:00;1;528;4968;0;2;240;1413;4;272;379;13;3;144;816;4;182;509;16;4;196;1159;5;204;229;14;5;541;3196;4;276;230;405;607;24;6;370;2341;4;167;183;475;481;24;7;234;1414;4;263;438;17;8;230;1431;4;265;463;17;9;97;713;4;119;513;13
23.12.18;13:45:00;1;539;4924;0;2;136;1394;4;163;377;13;3;76;804;4;112;492;16;4;89;1143;5;93;203;14;5;325;3153;4;158;133;371;590;24;6;223;2311;4;110;119;474;452;24;7;108;1395;4;154;461;17;8;117;1412;4;155;462;17;9;10;706;6;13;562;13
23.12.18;13:40:00;1;508;4880;0;2;206;1382;4;235;379;13;3;112;797;4;153;512;16;4;160;1135;3;166;219;14;5;467;3126;4;235;201;386;598;24;6;351;2293;4;179;202;552;540;24;7;175;1386;4;207;452;17;8;173;1402;4;206;452;17;9;76;705;6;97;520;13
23.12.18;13:35:00;1;1763;4838;0;2;237;1365;4;270;382;13;3;142;788;4;179;504;16;4;190;1122;5;198;230;14;5;527;3085;4;265;227;412;622;24;6;393;2262;4;173;186;578;551;24;7;230;1372;4;261;461;17;8;229;1387;4;265;469;17;9;124;699;4;151;513;13